,,Stat6,,Stat2,,Stat8,,Stat9,,Stat10,,Wind1,,Wind1,
time,status,PA1M_AVG,status,PR1M_SUM,status,RH1M_AVG,status,SR1M_AVG,status,TA1M_AVG,status,W1dAve1m,status,W1sAve1m,
2006-05-12, 00:00:00,VALID,918.447,VALID,0,VALID,100,VALID,-0.186789,VALID,19.256,VALID,158,VALID,0.982558,
2006-05-12, 00:01:00,VALID,918.441,VALID,0,VALID,100,VALID,-0.288674,VALID,19.5091,VALID,166,VALID,0.96824,
2006-05-12, 00:02:00,VALID,918.43,VALID,0,VALID,100,VALID,-0.288674,VALID,19.7298,VALID,146,VALID,0.656064,
2006-05-12, 00:03:00,VALID,918.423,VALID,0,VALID,100,VALID,-0.169808,VALID,20.0443,VALID,151,VALID,0.373437,
2006-05-12, 00:04:00,VALID,918.411,VALID,0,VALID,100,VALID,-0.254712,VALID,20.0781,VALID,149,VALID,0.573552,
2006-05-12, 00:05:00,VALID,918.409,VALID,0,VALID,100,VALID,-0.288674,VALID,19.5241,VALID,148,VALID,0.543445,
2006-05-12, 00:06:00,VALID,918.39,VALID,0,VALID,100,VALID,-0.288674,VALID,19.4347,VALID,156,VALID,0.552401,
2006-05-12, 00:07:00,VALID,918.378,VALID,0,VALID,100,VALID,-0.305655,VALID,20.0809,VALID,146,VALID,0.826522,
2006-05-12, 00:08:00,VALID,918.377,VALID,0,VALID,100,VALID,-0.271693,VALID,19.2829,VALID,163,VALID,0.932706,
2006-05-12, 00:09:00,VALID,918.338,VALID,0,VALID,100,VALID,-0.288674,VALID,19.0216,VALID,154,VALID,0.938058,
2006-05-12, 00:10:00,VALID,918.322,VALID,0,VALID,100,VALID,-0.288674,VALID,21.5188,VALID,150,VALID,0.743676,
2006-05-12, 00:11:00,VALID,918.316,VALID,0,VALID,100,VALID,-0.220751,VALID,19.7579,VALID,138,VALID,1.39616,
2006-05-12, 00:12:00,VALID,918.289,VALID,0,VALID,100,VALID,-0.305655,VALID,20.4952,VALID,142,VALID,1.13849,
2006-05-12, 00:13:00,VALID,918.269,VALID,0,VALID,100,VALID,-0.254712,VALID,20.009,VALID,135,VALID,1.53782,
2006-05-12, 00:14:00,VALID,918.245,VALID,0,VALID,100,VALID,-0.152827,VALID,19.6461,VALID,133,VALID,1.32254,
2006-05-12, 00:15:00,VALID,918.229,VALID,0,VALID,100,VALID,-0.186789,VALID,19.5587,VALID,131,VALID,1.14676,
2006-05-12, 00:16:00,VALID,918.203,VALID,0,VALID,100,VALID,-0.186789,VALID,20.2328,VALID,125,VALID,1.46132,
2006-05-12, 00:17:00,VALID,918.173,VALID,0,VALID,100,VALID,-0.169808,VALID,20.4908,VALID,125,VALID,1.51339,
2006-05-12, 00:18:00,VALID,918.153,VALID,0,VALID,100,VALID,-0.288674,VALID,18.7307,VALID,113,VALID,1.43532,
2006-05-12, 00:19:00,VALID,918.134,VALID,0,VALID,100,VALID,-0.254712,VALID,19.4307,VALID,117,VALID,1.33066,
2006-05-12, 00:20:00,VALID,918.094,VALID,0,VALID,100,VALID,-0.271693,VALID,19.3197,VALID,114,VALID,1.50149,
2006-05-12, 00:21:00,VALID,918.083,VALID,0,VALID,100,VALID,-0.152827,VALID,19.1084,VALID,122,VALID,1.74709,
2006-05-12, 00:22:00,VALID,918.056,VALID,0,VALID,100,VALID,-0.237732,VALID,19.8701,VALID,136,VALID,1.58984,
2006-05-12, 00:23:00,VALID,918.028,VALID,0,VALID,100,VALID,-0.169808,VALID,20.3593,VALID,130,VALID,1.5886,
2006-05-12, 00:24:00,VALID,918.015,VALID,0,VALID,100,VALID,-0.237732,VALID,20.1952,VALID,140,VALID,1.08921,
2006-05-12, 00:25:00,VALID,918.006,VALID,0,VALID,100,VALID,-0.271693,VALID,20.6306,VALID,136,VALID,1.52471,
2006-05-12, 00:26:00,VALID,917.994,VALID,0,VALID,100,VALID,-0.271693,VALID,20.6686,VALID,142,VALID,1.26635,
2006-05-12, 00:27:00,VALID,917.979,VALID,0,VALID,100,VALID,-0.237732,VALID,21.0665,VALID,142,VALID,2.0541,
2006-05-12, 00:28:00,VALID,917.971,VALID,0,VALID,100,VALID,-0.254712,VALID,19.3099,VALID,151,VALID,1.92422,
2006-05-12, 00:29:00,VALID,917.954,VALID,0,VALID,100,VALID,-0.152827,VALID,20.5285,VALID,139,VALID,1.66987,
2006-05-12, 00:30:00,VALID,917.948,VALID,0,VALID,100,VALID,-0.271693,VALID,19.4312,VALID,147,VALID,1.37221,
2006-05-12, 00:31:00,VALID,917.938,VALID,0,VALID,100,VALID,-0.169808,VALID,19.1094,VALID,151,VALID,1.47559,
2006-05-12, 00:32:00,VALID,917.937,VALID,0,VALID,100,VALID,-0.288674,VALID,20.0448,VALID,132,VALID,0.903392,
2006-05-12, 00:33:00,VALID,917.924,VALID,0,VALID,100,VALID,-0.271693,VALID,20.4882,VALID,136,VALID,0.604106,
2006-05-12, 00:34:00,VALID,917.901,VALID,0,VALID,100,VALID,-0.305655,VALID,19.1261,VALID,137,VALID,1.06934,
2006-05-12, 00:35:00,VALID,917.884,VALID,0,VALID,100,VALID,-0.288674,VALID,18.0362,VALID,133,VALID,1.34277,
2006-05-12, 00:36:00,VALID,917.872,VALID,0,VALID,100,VALID,-0.271693,VALID,19.2044,VALID,129,VALID,1.45276,
2006-05-12, 00:37:00,VALID,917.872,VALID,0,VALID,100,VALID,-0.186789,VALID,19.6204,VALID,145,VALID,1.15949,
2006-05-12, 00:38:00,VALID,917.853,VALID,0,VALID,100,VALID,-0.271693,VALID,19.29,VALID,150,VALID,1.2459,
2006-05-12, 00:39:00,VALID,917.841,VALID,0,VALID,100,VALID,-0.271693,VALID,20.0512,VALID,156,VALID,1.22313,
2006-05-12, 00:40:00,VALID,917.834,VALID,0,VALID,100,VALID,-0.271693,VALID,20.8948,VALID,146,VALID,0.934495,
2006-05-12, 00:41:00,VALID,917.824,VALID,0,VALID,100,VALID,-0.237732,VALID,20.1973,VALID,181,VALID,1.04059,
2006-05-12, 00:42:00,VALID,917.823,VALID,0,VALID,100,VALID,-0.271693,VALID,19.6714,VALID,172,VALID,0.52168,
2006-05-12, 00:43:00,VALID,917.814,VALID,0,VALID,100,VALID,-0.237732,VALID,20.2397,VALID,150,VALID,1.04902,
2006-05-12, 00:44:00,VALID,917.826,VALID,0,VALID,100,VALID,-0.186789,VALID,20.6063,VALID,143,VALID,1.18917,
2006-05-12, 00:45:00,VALID,917.813,VALID,0,VALID,100,VALID,-0.20377,VALID,20.1223,VALID,175,VALID,0.549851,
2006-05-12, 00:46:00,VALID,917.819,VALID,0,VALID,100,VALID,-0.169808,VALID,20.0815,VALID,154,VALID,0.88058,
2006-05-12, 00:47:00,VALID,917.8,VALID,0,VALID,100,VALID,-0.186789,VALID,20.7567,VALID,143,VALID,1.33648,
2006-05-12, 00:48:00,VALID,917.806,VALID,0,VALID,100,VALID,-0.271693,VALID,20.01,VALID,140,VALID,1.35302,
2006-05-12, 00:49:00,VALID,917.786,VALID,0,VALID,100,VALID,-0.20377,VALID,20.6233,VALID,145,VALID,1.36071,
2006-05-12, 00:50:00,VALID,917.774,VALID,0,VALID,100,VALID,-0.20377,VALID,20.7783,VALID,148,VALID,1.251,
2006-05-12, 00:51:00,VALID,917.762,VALID,0,VALID,100,VALID,-0.20377,VALID,20.9984,VALID,135,VALID,1.50534,
2006-05-12, 00:52:00,VALID,917.771,VALID,0,VALID,100,VALID,-0.20377,VALID,19.6941,VALID,131,VALID,1.31759,
2006-05-12, 00:53:00,VALID,917.771,VALID,0,VALID,100,VALID,-0.20377,VALID,18.6819,VALID,130,VALID,1.65309,
2006-05-12, 00:54:00,VALID,917.782,VALID,0,VALID,100,VALID,-0.220751,VALID,20.0644,VALID,132,VALID,1.2783,
2006-05-12, 00:55:00,VALID,917.776,VALID,0,VALID,100,VALID,-0.288674,VALID,19.3534,VALID,127,VALID,1.01563,
2006-05-12, 00:56:00,VALID,917.762,VALID,0,VALID,100,VALID,-0.20377,VALID,19.9868,VALID,136,VALID,1.16074,
2006-05-12, 00:57:00,VALID,917.775,VALID,0,VALID,100,VALID,-0.20377,VALID,20.4206,VALID,140,VALID,1.14395,
2006-05-12, 00:58:00,VALID,917.768,VALID,0,VALID,100,VALID,-0.220751,VALID,20.2914,VALID,131,VALID,1.14916,
2006-05-12, 00:59:00,VALID,917.788,VALID,0,VALID,100,VALID,-0.220751,VALID,20.4108,VALID,144,VALID,1.17355,
2006-05-12, 01:00:00,VALID,917.782,VALID,0,VALID,100,VALID,-0.322636,VALID,20.1514,VALID,153,VALID,1.0545,
2006-05-12, 01:01:00,VALID,917.796,VALID,0,VALID,100,VALID,-0.288674,VALID,18.9124,VALID,125,VALID,0.78125,
2006-05-12, 01:02:00,VALID,917.793,VALID,0,VALID,100,VALID,-0.220751,VALID,19.029,VALID,169,VALID,1.28716,
2006-05-12, 01:03:00,VALID,917.776,VALID,0,VALID,100,VALID,-0.220751,VALID,20.6233,VALID,147,VALID,0.815625,
2006-05-12, 01:04:00,VALID,917.78,VALID,0,VALID,100,VALID,-0.20377,VALID,20.2259,VALID,126,VALID,1.06445,
2006-05-12, 01:05:00,VALID,917.777,VALID,0,VALID,100,VALID,-0.220751,VALID,20.1125,VALID,141,VALID,0.843349,
2006-05-12, 01:06:00,VALID,917.775,VALID,0,VALID,100,VALID,-0.186789,VALID,20.1867,VALID,156,VALID,0.679688,
2006-05-12, 01:07:00,VALID,917.762,VALID,0,VALID,100,VALID,-0.20377,VALID,20.0024,VALID,130,VALID,1.10063,
2006-05-12, 01:08:00,VALID,917.76,VALID,0,VALID,100,VALID,-0.220751,VALID,20.1097,VALID,127,VALID,1.66034,
2006-05-12, 01:09:00,VALID,917.754,VALID,0,VALID,100,VALID,-0.20377,VALID,19.5666,VALID,107,VALID,1.18579,
2006-05-12, 01:10:00,VALID,917.745,VALID,0,VALID,100,VALID,-0.220751,VALID,19.6437,VALID,113,VALID,1.27604,
2006-05-12, 01:11:00,VALID,917.736,VALID,0,VALID,100,VALID,-0.288674,VALID,19.9915,VALID,116,VALID,1.39933,
2006-05-12, 01:12:00,VALID,917.719,VALID,0,VALID,100,VALID,-0.288674,VALID,20.3154,VALID,120,VALID,1.09022,
2006-05-12, 01:13:00,VALID,917.713,VALID,0,VALID,100,VALID,-0.20377,VALID,20.0823,VALID,102,VALID,1.24423,
2006-05-12, 01:14:00,VALID,917.699,VALID,0,VALID,100,VALID,-0.20377,VALID,20.3304,VALID,109,VALID,0.906059,
2006-05-12, 01:15:00,VALID,917.687,VALID,0,VALID,100,VALID,-0.20377,VALID,21.3047,VALID,120,VALID,1.11358,
2006-05-12, 01:16:00,VALID,917.693,VALID,0,VALID,100,VALID,-0.20377,VALID,20.889,VALID,107,VALID,0.81612,
2006-05-12, 01:17:00,VALID,917.708,VALID,0,VALID,100,VALID,-0.186789,VALID,19.6817,VALID,52,VALID,0.328835,
2006-05-12, 01:18:00,VALID,917.71,VALID,0,VALID,100,VALID,-0.20377,VALID,19.7166,VALID,159,VALID,0.330469,
2006-05-12, 01:19:00,VALID,917.711,VALID,0,VALID,100,VALID,-0.20377,VALID,20.6474,VALID,161,VALID,0.053125,
2006-05-12, 01:20:00,VALID,917.724,VALID,0,VALID,100,VALID,-0.237732,VALID,19.2406,VALID,161,VALID,0.0738467,
2006-05-12, 01:21:00,VALID,917.717,VALID,0,VALID,100,VALID,-0.288674,VALID,20.6973,VALID,161,VALID,0.0248047,
2006-05-12, 01:22:00,VALID,917.704,VALID,0,VALID,100,VALID,-0.20377,VALID,19.5424,VALID,161,VALID,0.491235,
2006-05-12, 01:23:00,VALID,917.71,VALID,0,VALID,100,VALID,-0.20377,VALID,19.5112,VALID,161,VALID,0.482088,
2006-05-12, 01:24:00,VALID,917.71,VALID,0,VALID,100,VALID,-0.20377,VALID,19.6155,VALID,161,VALID,0.564787,
2006-05-12, 01:25:00,VALID,917.712,VALID,0,VALID,100,VALID,-0.220751,VALID,18.4803,VALID,62,VALID,0.730291,
2006-05-12, 01:26:00,VALID,917.71,VALID,0,VALID,100,VALID,-0.220751,VALID,20.3758,VALID,353,VALID,0.614397,
2006-05-12, 01:27:00,VALID,917.709,VALID,0,VALID,100,VALID,-0.186789,VALID,19.6832,VALID,353,VALID,0.744565,
2006-05-12, 01:28:00,VALID,917.715,VALID,0,VALID,100,VALID,-0.118866,VALID,20.5975,VALID,5,VALID,0.986471,
2006-05-12, 01:29:00,VALID,917.725,VALID,0,VALID,100,VALID,-0.237732,VALID,19.1121,VALID,7,VALID,1.127,
2006-05-12, 01:30:00,VALID,917.734,VALID,0,VALID,100,VALID,-0.237732,VALID,19.2557,VALID,25,VALID,0.631392,
2006-05-12, 01:31:00,VALID,917.736,VALID,0,VALID,100,VALID,-0.20377,VALID,20.2926,VALID,16,VALID,0.74442,
2006-05-12, 01:32:00,VALID,917.745,VALID,0,VALID,100,VALID,-0.20377,VALID,19.5012,VALID,11,VALID,0.461133,
2006-05-12, 01:33:00,VALID,917.749,VALID,0,VALID,100,VALID,-0.152827,VALID,21.8062,VALID,7,VALID,0.621094,
2006-05-12, 01:34:00,VALID,917.753,VALID,0,VALID,100,VALID,-0.20377,VALID,20.6159,VALID,7,VALID,0.67702,
2006-05-12, 01:35:00,VALID,917.744,VALID,0,VALID,100,VALID,-0.237732,VALID,20.2309,VALID,7,VALID,0.81321,
2006-05-12, 01:36:00,VALID,917.743,VALID,0,VALID,100,VALID,-0.186789,VALID,20.121,VALID,25,VALID,0.760174,
2006-05-12, 01:37:00,VALID,917.728,VALID,0,VALID,100,VALID,-0.152827,VALID,19.6672,VALID,44,VALID,0.954055,
2006-05-12, 01:38:00,VALID,917.728,VALID,0,VALID,100,VALID,-0.169808,VALID,19.2593,VALID,48,VALID,0.963728,
2006-05-12, 01:39:00,VALID,917.718,VALID,0,VALID,100,VALID,-0.220751,VALID,20.6883,VALID,49,VALID,0.854759,
2006-05-12, 01:40:00,VALID,917.698,VALID,0,VALID,100,VALID,-0.288674,VALID,19.1394,VALID,49,VALID,0.804116,
2006-05-12, 01:41:00,VALID,917.69,VALID,0,VALID,100,VALID,-0.254712,VALID,19.5131,VALID,50,VALID,0.658975,
2006-05-12, 01:42:00,VALID,917.689,VALID,0,VALID,100,VALID,-0.20377,VALID,19.1149,VALID,51,VALID,0.601563,
2006-05-12, 01:43:00,VALID,917.663,VALID,0,VALID,100,VALID,-0.20377,VALID,19.1957,VALID,51,VALID,0.771662,
2006-05-12, 01:44:00,VALID,917.652,VALID,0,VALID,100,VALID,-0.186789,VALID,18.6542,VALID,50,VALID,1.03835,
2006-05-12, 01:45:00,VALID,917.64,VALID,0,VALID,100,VALID,-0.20377,VALID,20.0485,VALID,49,VALID,1.11026,
2006-05-12, 01:46:00,VALID,917.627,VALID,0,VALID,100,VALID,-0.169808,VALID,19.3883,VALID,48,VALID,1.18197,
2006-05-12, 01:47:00,VALID,917.627,VALID,0,VALID,100,VALID,-0.20377,VALID,19.7365,VALID,48,VALID,1.1248,
2006-05-12, 01:48:00,VALID,917.62,VALID,0,VALID,100,VALID,-0.20377,VALID,18.4511,VALID,42,VALID,1.03832,
2006-05-12, 01:49:00,VALID,917.617,VALID,0,VALID,100,VALID,-0.254712,VALID,18.9601,VALID,42,VALID,0.948765,
2006-05-12, 01:50:00,VALID,917.608,VALID,0,VALID,100,VALID,-0.254712,VALID,19.1224,VALID,42,VALID,0.688988,
2006-05-12, 01:51:00,VALID,917.61,VALID,0,VALID,100,VALID,-0.254712,VALID,19.0519,VALID,42,VALID,0.572129,
2006-05-12, 01:52:00,VALID,917.604,VALID,0,VALID,100,VALID,-0.271693,VALID,19.1363,VALID,42,VALID,0.578506,
2006-05-12, 01:53:00,VALID,917.602,VALID,0,VALID,100,VALID,-0.186789,VALID,18.5852,VALID,51,VALID,0.598011,
2006-05-12, 01:54:00,VALID,917.594,VALID,0,VALID,100,VALID,-0.20377,VALID,20.3764,VALID,63,VALID,0.512386,
2006-05-12, 01:55:00,VALID,917.587,VALID,0,VALID,100,VALID,-0.220751,VALID,18.8907,VALID,79,VALID,0.568945,
2006-05-12, 01:56:00,VALID,917.575,VALID,0,VALID,100,VALID,-0.305655,VALID,19.5191,VALID,97,VALID,0.476215,
2006-05-12, 01:57:00,VALID,917.558,VALID,0,VALID,100,VALID,-0.288674,VALID,18.8061,VALID,82,VALID,0.366122,
2006-05-12, 01:58:00,VALID,917.563,VALID,0,VALID,100,VALID,-0.271693,VALID,19.5141,VALID,27,VALID,0.514353,
2006-05-12, 01:59:00,VALID,917.564,VALID,0,VALID,100,VALID,-0.305655,VALID,19.773,VALID,27,VALID,0.552202,
2006-05-12, 02:00:00,VALID,917.576,VALID,0,VALID,100,VALID,-0.271693,VALID,20.0223,VALID,31,VALID,0.537574,
2006-05-12, 02:01:00,VALID,917.575,VALID,0,VALID,100,VALID,-0.152827,VALID,20.0112,VALID,32,VALID,0.726753,
2006-05-12, 02:02:00,VALID,917.572,VALID,0,VALID,100,VALID,-0.220751,VALID,20.9016,VALID,32,VALID,0.686228,
2006-05-12, 02:03:00,VALID,917.562,VALID,0,VALID,100,VALID,-0.271693,VALID,19.3559,VALID,35,VALID,0.634859,
2006-05-12, 02:04:00,VALID,917.567,VALID,0,VALID,100,VALID,-0.20377,VALID,20.3872,VALID,44,VALID,0.799653,
2006-05-12, 02:05:00,VALID,917.564,VALID,0,VALID,100,VALID,-0.169808,VALID,19.2354,VALID,47,VALID,0.745999,
2006-05-12, 02:06:00,VALID,917.557,VALID,0,VALID,100,VALID,-0.135847,VALID,19.1302,VALID,62,VALID,0.694957,
2006-05-12, 02:07:00,VALID,917.548,VALID,0,VALID,100,VALID,-0.20377,VALID,19.8245,VALID,66,VALID,0.791853,
2006-05-12, 02:08:00,VALID,917.543,VALID,0,VALID,100,VALID,-0.186789,VALID,20.1206,VALID,67,VALID,0.91226,
2006-05-12, 02:09:00,VALID,917.554,VALID,0,VALID,100,VALID,-0.186789,VALID,19.7983,VALID,67,VALID,0.719551,
2006-05-12, 02:10:00,VALID,917.561,VALID,0,VALID,100,VALID,-0.305655,VALID,18.3251,VALID,67,VALID,0.389482,
2006-05-12, 02:11:00,VALID,917.557,VALID,0,VALID,100,VALID,-0.305655,VALID,17.4025,VALID,67,VALID,0.376215,
2006-05-12, 02:12:00,VALID,917.563,VALID,0,VALID,100,VALID,-0.288674,VALID,19.9211,VALID,67,VALID,0.165365,
2006-05-12, 02:13:00,VALID,917.569,VALID,0,VALID,100,VALID,-0.20377,VALID,19.858,VALID,67,VALID,0.0943216,
2006-05-12, 02:14:00,VALID,917.574,VALID,0,VALID,100,VALID,-0.288674,VALID,19.5691,VALID,67,VALID,0.210756,
2006-05-12, 02:15:00,VALID,917.573,VALID,0,VALID,100,VALID,-0.305655,VALID,18.6099,VALID,8,VALID,0.622622,
2006-05-12, 02:16:00,VALID,917.566,VALID,0,VALID,100,VALID,-0.288674,VALID,19.7559,VALID,1,VALID,0.388393,
2006-05-12, 02:17:00,VALID,917.565,VALID,0,VALID,100,VALID,-0.20377,VALID,19.9757,VALID,1,VALID,0.306868,
2006-05-12, 02:18:00,VALID,917.556,VALID,0,VALID,100,VALID,-0.254712,VALID,18.3723,VALID,1,VALID,0.206641,
2006-05-12, 02:19:00,VALID,917.552,VALID,0,VALID,100,VALID,-0.254712,VALID,19.765,VALID,1,VALID,0.225991,
2006-05-12, 02:20:00,VALID,917.534,VALID,0,VALID,100,VALID,-0.237732,VALID,19.384,VALID,1,VALID,0.433789,
2006-05-12, 02:21:00,VALID,917.514,VALID,0,VALID,100,VALID,-0.288674,VALID,19.9953,VALID,11,VALID,0.582292,
2006-05-12, 02:22:00,VALID,917.51,VALID,0,VALID,100,VALID,-0.254712,VALID,18.4672,VALID,15,VALID,0.499273,
2006-05-12, 02:23:00,VALID,917.5,VALID,0,VALID,100,VALID,-0.271693,VALID,21.2637,VALID,15,VALID,0.252604,
2006-05-12, 02:24:00,VALID,917.486,VALID,0,VALID,100,VALID,-0.288674,VALID,19.3176,VALID,15,VALID,0.0799006,
2006-05-12, 02:25:00,VALID,917.455,VALID,0,VALID,100,VALID,-0.288674,VALID,20.9911,VALID,15,VALID,0.0394631,
2006-05-12, 02:26:00,VALID,917.457,VALID,0,VALID,100,VALID,-0.220751,VALID,19.2611,VALID,15,VALID,0.029652,
2006-05-12, 02:27:00,VALID,917.45,VALID,0,VALID,100,VALID,-0.305655,VALID,19.6331,VALID,15,VALID,0,
2006-05-12, 02:28:00,VALID,917.436,VALID,0,VALID,100,VALID,-0.288674,VALID,17.4813,VALID,15,VALID,0,
2006-05-12, 02:29:00,VALID,917.438,VALID,0,VALID,100,VALID,-0.20377,VALID,19.2975,VALID,15,VALID,0,
2006-05-12, 02:30:00,VALID,917.45,VALID,0,VALID,100,VALID,-0.169808,VALID,18.7095,VALID,15,VALID,0,
2006-05-12, 02:31:00,VALID,917.458,VALID,0,VALID,100,VALID,-0.20377,VALID,18.7197,VALID,15,VALID,0,
2006-05-12, 02:32:00,VALID,917.463,VALID,0,VALID,100,VALID,-0.20377,VALID,20.2354,VALID,15,VALID,0.0278201,
2006-05-12, 02:33:00,VALID,917.457,VALID,0,VALID,100,VALID,-0.20377,VALID,18.1611,VALID,15,VALID,0.159446,
2006-05-12, 02:34:00,VALID,917.464,VALID,0,VALID,100,VALID,-0.220751,VALID,20.2917,VALID,15,VALID,0.146909,
2006-05-12, 02:35:00,VALID,917.464,VALID,0,VALID,100,VALID,-0.20377,VALID,18.503,VALID,15,VALID,0.0112645,
2006-05-12, 02:36:00,VALID,917.467,VALID,0,VALID,100,VALID,-0.186789,VALID,18.2181,VALID,15,VALID,0.0571733,
2006-05-12, 02:37:00,VALID,917.48,VALID,0,VALID,100,VALID,-0.101885,VALID,19.6292,VALID,29,VALID,0.311928,
2006-05-12, 02:38:00,VALID,917.484,VALID,0,VALID,100,VALID,-0.220751,VALID,18.9242,VALID,49,VALID,0.216273,
2006-05-12, 02:39:00,VALID,917.512,VALID,0,VALID,100,VALID,-0.20377,VALID,17.5256,VALID,49,VALID,0.00708576,
2006-05-12, 02:40:00,VALID,917.526,VALID,0,VALID,100,VALID,-0.20377,VALID,19.1077,VALID,49,VALID,0.0673611,
2006-05-12, 02:41:00,VALID,917.533,VALID,0,VALID,100,VALID,-0.20377,VALID,17.9246,VALID,49,VALID,0.0270833,
2006-05-12, 02:42:00,VALID,917.547,VALID,0,VALID,100,VALID,-0.20377,VALID,19.4056,VALID,49,VALID,0,
2006-05-12, 02:43:00,VALID,917.543,VALID,0,VALID,100,VALID,-0.220751,VALID,19.1273,VALID,49,VALID,0,
2006-05-12, 02:44:00,VALID,917.53,VALID,0,VALID,100,VALID,-0.20377,VALID,20.5812,VALID,49,VALID,0.0461483,
2006-05-12, 02:45:00,VALID,917.522,VALID,0,VALID,100,VALID,-0.20377,VALID,18.606,VALID,49,VALID,0.194602,
2006-05-12, 02:46:00,VALID,917.5,VALID,0,VALID,100,VALID,-0.220751,VALID,18.0813,VALID,49,VALID,0.256138,
2006-05-12, 02:47:00,VALID,917.477,VALID,0,VALID,100,VALID,-0.288674,VALID,19.2101,VALID,49,VALID,0.310937,
2006-05-12, 02:48:00,VALID,917.448,VALID,0,VALID,100,VALID,-0.288674,VALID,18.4906,VALID,315,VALID,0.359575,
2006-05-12, 02:49:00,VALID,917.428,VALID,0,VALID,100,VALID,-0.271693,VALID,19.4237,VALID,280,VALID,0.325149,
2006-05-12, 02:50:00,VALID,917.403,VALID,0,VALID,100,VALID,-0.220751,VALID,18.9628,VALID,280,VALID,0.128005,
2006-05-12, 02:51:00,VALID,917.397,VALID,0,VALID,100,VALID,-0.288674,VALID,18.9144,VALID,280,VALID,0,
2006-05-12, 02:52:00,VALID,917.386,VALID,0,VALID,100,VALID,-0.186789,VALID,19.1726,VALID,280,VALID,0,
2006-05-12, 02:53:00,VALID,917.366,VALID,0,VALID,100,VALID,-0.152827,VALID,19.7527,VALID,280,VALID,0,
2006-05-12, 02:54:00,VALID,917.361,VALID,0,VALID,100,VALID,-0.288674,VALID,19.6551,VALID,280,VALID,0,
2006-05-12, 02:55:00,VALID,917.354,VALID,0,VALID,100,VALID,-0.254712,VALID,19.6901,VALID,280,VALID,0.0122768,
2006-05-12, 02:56:00,VALID,917.35,VALID,0,VALID,100,VALID,-0.271693,VALID,17.9654,VALID,280,VALID,0.00109012,
2006-05-12, 02:57:00,VALID,917.35,VALID,0,VALID,100,VALID,-0.271693,VALID,20.0135,VALID,280,VALID,0,
2006-05-12, 02:58:00,VALID,917.346,VALID,0,VALID,100,VALID,-0.169808,VALID,19.3173,VALID,280,VALID,0,
2006-05-12, 02:59:00,VALID,917.339,VALID,0,VALID,100,VALID,-0.288674,VALID,18.6124,VALID,280,VALID,0.0897529,
2006-05-12, 03:00:00,VALID,917.329,VALID,0,VALID,100,VALID,-0.186789,VALID,19.579,VALID,280,VALID,0,
2006-05-12, 03:01:00,VALID,917.32,VALID,0,VALID,100,VALID,-0.254712,VALID,18.6595,VALID,280,VALID,0,
2006-05-12, 03:02:00,VALID,917.334,VALID,0,VALID,100,VALID,-0.271693,VALID,19.6437,VALID,280,VALID,0,
2006-05-12, 03:03:00,VALID,917.323,VALID,0,VALID,100,VALID,-0.20377,VALID,19.5301,VALID,280,VALID,0.0332532,
2006-05-12, 03:04:00,VALID,917.323,VALID,0,VALID,100,VALID,-0.254712,VALID,19.5738,VALID,280,VALID,0.225654,
2006-05-12, 03:05:00,VALID,917.333,VALID,0,VALID,100,VALID,-0.20377,VALID,19.64,VALID,280,VALID,0.245739,
2006-05-12, 03:06:00,VALID,917.339,VALID,0,VALID,100,VALID,-0.20377,VALID,17.9817,VALID,280,VALID,0.194404,
2006-05-12, 03:07:00,VALID,917.332,VALID,0,VALID,100,VALID,-0.618866,VALID,18.5268,VALID,280,VALID,0.037157,
2006-05-12, 03:08:00,VALID,917.341,VALID,0,VALID,100,VALID,-0.322636,VALID,18.9526,VALID,280,VALID,0.000400641,
2006-05-12, 03:09:00,VALID,917.329,VALID,0,VALID,100,VALID,-0.288674,VALID,19.0845,VALID,280,VALID,0.238554,
2006-05-12, 03:10:00,VALID,917.322,VALID,0,VALID,100,VALID,-0.20377,VALID,19.2499,VALID,280,VALID,0.332227,
2006-05-12, 03:11:00,VALID,917.312,VALID,0,VALID,100,VALID,-0.186789,VALID,17.9438,VALID,280,VALID,0.307664,
2006-05-12, 03:12:00,VALID,917.289,VALID,0,VALID,100,VALID,-0.220751,VALID,21.595,VALID,280,VALID,0.422585,
2006-05-12, 03:13:00,VALID,917.27,VALID,0,VALID,100,VALID,-0.220751,VALID,19.8671,VALID,280,VALID,0.35032,
2006-05-12, 03:14:00,VALID,917.251,VALID,0,VALID,100,VALID,-0.20377,VALID,18.4236,VALID,280,VALID,0.346608,
2006-05-12, 03:15:00,VALID,917.244,VALID,0,VALID,100,VALID,-0.20377,VALID,18.3009,VALID,280,VALID,0.46684,
2006-05-12, 03:16:00,VALID,917.25,VALID,0,VALID,100,VALID,-0.220751,VALID,19.1403,VALID,355,VALID,0.723704,
2006-05-12, 03:17:00,VALID,917.257,VALID,0,VALID,100,VALID,-0.186789,VALID,18.6139,VALID,20,VALID,0.639898,
2006-05-12, 03:18:00,VALID,917.25,VALID,0,VALID,100,VALID,-0.20377,VALID,18.4556,VALID,19,VALID,0.669085,
2006-05-12, 03:19:00,VALID,917.266,VALID,0,VALID,100,VALID,-0.220751,VALID,18.8027,VALID,30,VALID,0.409455,
2006-05-12, 03:20:00,VALID,917.286,VALID,0,VALID,100,VALID,-0.220751,VALID,19.2689,VALID,30,VALID,0.444965,
2006-05-12, 03:21:00,VALID,917.303,VALID,0,VALID,100,VALID,-0.288674,VALID,18.747,VALID,30,VALID,0.452943,
2006-05-12, 03:22:00,VALID,917.317,VALID,0,VALID,100,VALID,-0.20377,VALID,19.128,VALID,30,VALID,0.588118,
2006-05-12, 03:23:00,VALID,917.316,VALID,0,VALID,100,VALID,-0.20377,VALID,17.9485,VALID,30,VALID,0.766493,
2006-05-12, 03:24:00,VALID,917.313,VALID,0,VALID,100,VALID,-0.186789,VALID,19.6386,VALID,28,VALID,0.599702,
2006-05-12, 03:25:00,VALID,917.289,VALID,0,VALID,100,VALID,-0.220751,VALID,20.2436,VALID,32,VALID,0.591406,
2006-05-12, 03:26:00,VALID,917.28,VALID,0,VALID,100,VALID,-0.20377,VALID,20.0865,VALID,40,VALID,0.817336,
2006-05-12, 03:27:00,VALID,917.262,VALID,0,VALID,100,VALID,-0.20377,VALID,19.2781,VALID,47,VALID,1.03666,
2006-05-12, 03:28:00,VALID,917.245,VALID,0,VALID,100,VALID,-0.220751,VALID,17.7666,VALID,42,VALID,0.98418,
2006-05-12, 03:29:00,VALID,917.231,VALID,0,VALID,100,VALID,-0.20377,VALID,18.8145,VALID,50,VALID,1.13867,
2006-05-12, 03:30:00,VALID,917.214,VALID,0,VALID,100,VALID,-0.220751,VALID,18.6017,VALID,54,VALID,1.00218,
2006-05-12, 03:31:00,VALID,917.212,VALID,0,VALID,100,VALID,-0.237732,VALID,20.1367,VALID,68,VALID,0.632457,
2006-05-12, 03:32:00,VALID,917.227,VALID,0,VALID,100,VALID,-0.20377,VALID,19.0482,VALID,51,VALID,0.712612,
2006-05-12, 03:33:00,VALID,917.218,VALID,0,VALID,100,VALID,-0.237732,VALID,19.4145,VALID,55,VALID,0.929142,
2006-05-12, 03:34:00,VALID,917.234,VALID,0,VALID,100,VALID,-0.271693,VALID,18.7623,VALID,64,VALID,0.755319,
2006-05-12, 03:35:00,VALID,917.232,VALID,0,VALID,100,VALID,-0.186789,VALID,18.6582,VALID,58,VALID,0.738554,
2006-05-12, 03:36:00,VALID,917.238,VALID,0,VALID,100,VALID,-0.186789,VALID,18.5323,VALID,38,VALID,0.454723,
2006-05-12, 03:37:00,VALID,917.246,VALID,0,VALID,100,VALID,-0.387417,VALID,18.3895,VALID,44,VALID,0.524554,
2006-05-12, 03:38:00,VALID,917.256,VALID,0,VALID,100,VALID,-0.884276,VALID,19.8527,VALID,48,VALID,0.280506,
2006-05-12, 03:39:00,VALID,917.251,VALID,0,VALID,100,VALID,-0.271693,VALID,18.6111,VALID,48,VALID,0.304883,
2006-05-12, 03:40:00,VALID,917.239,VALID,0,VALID,100,VALID,-0.288674,VALID,18.8784,VALID,67,VALID,0.641897,
2006-05-12, 03:41:00,VALID,917.234,VALID,0,VALID,100,VALID,-0.271693,VALID,20.045,VALID,86,VALID,1.02362,